Time,TemperatureF,DewpointF,PressureIn,WindDirection,WindDirectionDegrees,WindSpeedMPH,WindSpeedGustMPH,Humidity,HourlyPrecipIn,Conditions,Clouds,dailyrainin,SolarRadiationWatts/m^2,SoftwareType,DateUTC
2013-03-08 00:01:00,29.1,23.1,30.11,East,98,0.0,4.0,78,0.00,,,0.00,0,Wunderground v.1.15,2013-03-08 05:01:00,
2013-03-08 00:03:00,29.1,23.1,30.11,East,98,0.0,4.0,78,0.00,,,0.00,0,Wunderground v.1.15,2013-03-08 05:03:00,
2013-03-08 00:04:00,29.1,23.1,30.11,East,98,0.0,4.0,78,0.00,,,0.00,0,Wunderground v.1.15,2013-03-08 05:04:00,
2013-03-08 00:10:00,29.1,23.1,30.11,East,98,0.0,4.0,78,0.00,,,0.00,0,Wunderground v.1.15,2013-03-08 05:10:00,
2013-03-08 00:14:00,29.1,23.1,30.11,SW,221,0.0,4.0,78,0.00,,,0.00,0,Wunderground v.1.15,2013-03-08 05:14:00,
2013-03-08 00:19:00,29.1,23.1,30.11,SW,221,0.0,4.0,78,0.00,,,0.00,0,Wunderground v.1.15,2013-03-08 05:19:00,
2013-03-08 00:24:00,29.3,23.3,30.11,South,169,0.0,4.0,78,0.00,,,0.00,0,Wunderground v.1.15,2013-03-08 05:24:00,
2013-03-08 00:30:00,29.3,23.3,30.12,East,98,0.0,4.0,78,0.00,,,0.00,0,Wunderground v.1.15,2013-03-08 05:30:00,
2013-03-08 00:36:00,29.3,23.3,30.12,East,98,0.0,4.0,78,0.00,,,0.00,0,Wunderground v.1.15,2013-03-08 05:36:00,
2013-03-08 00:42:00,29.3,23.3,30.11,East,101,0.0,4.0,78,0.00,,,0.00,0,Wunderground v.1.15,2013-03-08 05:42:00,
2013-03-08 00:47:00,29.3,23.3,30.11,East,101,0.0,4.0,78,0.00,,,0.00,0,Wunderground v.1.15,2013-03-08 05:47:00,
2013-03-08 00:53:00,29.3,23.3,30.11,ESE,112,0.0,4.0,78,0.00,,,0.00,0,Wunderground v.1.15,2013-03-08 05:53:00,
2013-03-08 00:59:00,29.3,23.3,30.12,WSW,238,1.0,4.0,78,0.00,,,0.00,0,Wunderground v.1.15,2013-03-08 05:59:00,
2013-03-08 01:04:00,29.3,23.3,30.12,South,181,1.0,5.0,78,0.00,,,0.00,0,Wunderground v.1.15,2013-03-08 06:04:00,
2013-03-08 01:10:00,29.3,23.3,30.12,South,181,1.0,1.0,78,0.00,,,0.00,0,Wunderground v.1.15,2013-03-08 06:10:00,
2013-03-08 01:15:00,29.3,23.3,30.12,South,181,0.0,5.0,78,0.00,,,0.00,0,Wunderground v.1.15,2013-03-08 06:15:00,
2013-03-08 01:21:00,29.3,23.3,30.12,WNW,293,0.0,5.0,78,0.00,,,0.00,0,Wunderground v.1.15,2013-03-08 06:21:00,
2013-03-08 01:26:00,29.3,23.6,30.12,WNW,293,0.0,5.0,79,0.00,,,0.00,0,Wunderground v.1.15,2013-03-08 06:26:00,
2013-03-08 01:32:00,29.3,23.6,30.13,WNW,297,0.0,6.0,79,0.00,,,0.00,0,Wunderground v.1.15,2013-03-08 06:32:00,
2013-03-08 01:38:00,29.1,23.4,30.13,WNW,297,0.0,6.0,79,0.00,,,0.00,0,Wunderground v.1.15,2013-03-08 06:38:00,
2013-03-08 01:43:00,29.1,23.7,30.13,WNW,299,0.0,6.0,80,0.00,,,0.00,0,Wunderground v.1.15,2013-03-08 06:43:00,
2013-03-08 01:49:00,29.1,23.7,30.13,NNE,17,0.0,6.0,80,0.00,,,0.00,0,Wunderground v.1.15,2013-03-08 06:49:00,
2013-03-08 01:54:00,29.0,23.6,30.13,SE,134,0.0,6.0,80,0.00,,,0.00,0,Wunderground v.1.15,2013-03-08 06:54:00,
2013-03-08 02:01:00,29.0,23.9,30.13,SE,134,0.0,4.0,81,0.00,,,0.00,0,Wunderground v.1.15,2013-03-08 07:01:00,
2013-03-08 02:06:00,29.0,23.9,30.13,SE,134,0.0,4.0,81,0.00,,,0.00,0,Wunderground v.1.15,2013-03-08 07:06:00,
2013-03-08 02:11:00,28.8,23.7,30.13,SE,131,0.0,4.0,81,0.00,,,0.00,0,Wunderground v.1.15,2013-03-08 07:11:00,
2013-03-08 02:16:00,28.8,24.0,30.12,WSW,246,0.0,4.0,82,0.00,,,0.00,0,Wunderground v.1.15,2013-03-08 07:16:00,
2013-03-08 02:22:00,28.7,23.9,30.12,WSW,247,0.0,4.0,82,0.00,,,0.00,0,Wunderground v.1.15,2013-03-08 07:22:00,
2013-03-08 02:28:00,28.7,23.9,30.12,WSW,247,0.0,4.0,82,0.00,,,0.00,0,Wunderground v.1.15,2013-03-08 07:28:00,
2013-03-08 02:33:00,28.7,23.9,30.12,WSW,247,0.0,3.0,82,0.00,,,0.00,0,Wunderground v.1.15,2013-03-08 07:33:00,
2013-03-08 02:39:00,28.5,24.0,30.12,NW,320,0.0,3.0,83,0.00,,,0.00,0,Wunderground v.1.15,2013-03-08 07:39:00,
2013-03-08 02:44:00,28.5,24.0,30.12,NNW,345,0.0,3.0,83,0.00,,,0.00,0,Wunderground v.1.15,2013-03-08 07:44:00,
2013-03-08 02:51:00,28.5,24.0,30.12,East,101,0.0,3.0,83,0.00,,,0.00,0,Wunderground v.1.15,2013-03-08 07:51:00,
2013-03-08 02:56:00,28.5,24.0,30.12,East,101,0.0,3.0,83,0.00,,,0.00,0,Wunderground v.1.15,2013-03-08 07:56:00,
2013-03-08 03:02:00,28.5,23.7,30.12,ESE,117,0.0,3.0,82,0.00,,,0.00,0,Wunderground v.1.15,2013-03-08 08:02:00,
2013-03-08 03:07:00,28.5,23.7,30.12,SW,215,0.0,3.0,82,0.00,,,0.00,0,Wunderground v.1.15,2013-03-08 08:07:00,
2013-03-08 03:13:00,28.5,23.7,30.12,East,84,0.0,3.0,82,0.00,,,0.00,0,Wunderground v.1.15,2013-03-08 08:13:00,
2013-03-08 03:19:00,28.5,23.7,30.12,East,84,0.0,3.0,82,0.00,,,0.00,0,Wunderground v.1.15,2013-03-08 08:19:00,
2013-03-08 03:24:00,28.4,23.6,30.12,East,84,0.0,3.0,82,0.00,,,0.00,0,Wunderground v.1.15,2013-03-08 08:24:00,
2013-03-08 03:31:00,28.5,23.7,30.12,ESE,111,0.0,4.0,82,0.00,,,0.00,0,Wunderground v.1.15,2013-03-08 08:31:00,
2013-03-08 03:36:00,28.5,23.4,30.12,ESE,110,0.0,4.0,81,0.00,,,0.00,0,Wunderground v.1.15,2013-03-08 08:36:00,
2013-03-08 03:42:00,28.5,23.4,30.12,ESE,108,0.0,4.0,81,0.00,,,0.00,0,Wunderground v.1.15,2013-03-08 08:42:00,
2013-03-08 03:47:00,28.4,23.3,30.12,ESE,108,0.0,4.0,81,0.00,,,0.00,0,Wunderground v.1.15,2013-03-08 08:47:00,
2013-03-08 03:53:00,28.4,23.3,30.12,SSW,205,0.0,5.0,81,0.00,,,0.00,0,Wunderground v.1.15,2013-03-08 08:53:00,
2013-03-08 03:59:00,28.4,23.0,30.12,ESE,109,0.0,5.0,80,0.00,,,0.00,0,Wunderground v.1.15,2013-03-08 08:59:00,
2013-03-08 04:04:00,28.4,23.0,30.12,West,278,1.0,9.0,80,0.00,,,0.00,0,Wunderground v.1.15,2013-03-08 09:04:00,
2013-03-08 04:10:00,28.4,23.0,30.12,WNW,282,1.0,1.0,80,0.00,,,0.00,0,Wunderground v.1.15,2013-03-08 09:10:00,
2013-03-08 04:15:00,28.5,23.1,30.13,South,187,0.0,9.0,80,0.00,,,0.00,0,Wunderground v.1.15,2013-03-08 09:15:00,
2013-03-08 04:21:00,28.4,23.0,30.13,South,187,0.0,9.0,80,0.00,,,0.00,0,Wunderground v.1.15,2013-03-08 09:21:00,
2013-03-08 04:26:00,28.4,23.0,30.13,South,187,0.0,9.0,80,0.00,,,0.00,0,Wunderground v.1.15,2013-03-08 09:26:00,
2013-03-08 04:32:00,28.4,23.0,30.13,ENE,71,0.0,9.0,80,0.00,,,0.00,0,Wunderground v.1.15,2013-03-08 09:32:00,
2013-03-08 04:37:00,28.4,23.0,30.13,ENE,70,0.0,9.0,80,0.00,,,0.00,0,Wunderground v.1.15,2013-03-08 09:37:00,
2013-03-08 04:43:00,28.4,23.0,30.13,SSW,202,0.0,9.0,80,0.00,,,0.00,0,Wunderground v.1.15,2013-03-08 09:43:00,
2013-03-08 04:48:00,28.4,23.0,30.13,SSW,202,0.0,9.0,80,0.00,,,0.00,0,Wunderground v.1.15,2013-03-08 09:48:00,
2013-03-08 04:54:00,28.4,23.0,30.13,SE,129,0.0,9.0,80,0.00,,,0.00,0,Wunderground v.1.15,2013-03-08 09:54:00,
2013-03-08 05:00:00,28.4,23.0,30.13,SE,129,0.0,6.0,80,0.00,,,0.00,0,Wunderground v.1.15,2013-03-08 10:00:00,
2013-03-08 05:06:00,28.4,22.7,30.13,SE,129,0.0,6.0,79,0.00,,,0.00,0,Wunderground v.1.15,2013-03-08 10:06:00,
2013-03-08 05:11:00,28.4,22.7,30.13,SW,219,0.0,6.0,79,0.00,,,0.00,0,Wunderground v.1.15,2013-03-08 10:11:00,
2013-03-08 05:17:00,28.4,22.7,30.13,South,191,0.0,6.0,79,0.00,,,0.00,0,Wunderground v.1.15,2013-03-08 10:17:00,
2013-03-08 05:22:00,28.4,22.7,30.13,West,267,0.0,6.0,79,0.00,,,0.00,0,Wunderground v.1.15,2013-03-08 10:22:00,
2013-03-08 05:28:00,28.4,23.9,30.14,NE,52,0.0,6.0,83,0.00,,,0.00,0,Wunderground v.1.15,2013-03-08 10:28:00,
2013-03-08 05:34:00,28.4,22.7,30.14,SSE,148,1.0,4.0,79,0.00,,,0.00,0,Wunderground v.1.15,2013-03-08 10:34:00,
2013-03-08 05:39:00,28.4,22.7,30.14,SSE,149,0.0,4.0,79,0.00,,,0.00,0,Wunderground v.1.15,2013-03-08 10:39:00,
2013-03-08 05:46:00,28.4,23.0,30.14,SSE,149,0.0,3.0,80,0.00,,,0.00,0,Wunderground v.1.15,2013-03-08 10:46:00,
2013-03-08 05:51:00,28.2,22.8,30.14,ESE,112,0.0,3.0,80,0.00,,,0.00,0,Wunderground v.1.15,2013-03-08 10:51:00,
2013-03-08 05:57:00,28.2,23.1,30.15,ESE,112,0.0,3.0,81,0.00,,,0.00,0,Wunderground v.1.15,2013-03-08 10:57:00,
2013-03-08 06:02:00,28.1,23.3,30.15,ESE,112,0.0,4.0,82,0.00,,,0.00,0,Wunderground v.1.15,2013-03-08 11:02:00,
2013-03-08 06:08:00,28.1,23.3,30.15,South,169,1.0,4.0,82,0.00,,,0.00,0,Wunderground v.1.15,2013-03-08 11:08:00,
2013-03-08 06:13:00,28.1,23.3,30.16,South,169,0.0,4.0,82,0.00,,,0.00,0,Wunderground v.1.15,2013-03-08 11:13:00,
2013-03-08 06:18:00,28.1,23.3,30.16,South,169,0.0,4.0,82,0.00,,,0.00,0,Wunderground v.1.15,2013-03-08 11:18:00,
2013-03-08 06:24:00,27.9,23.4,30.16,WNW,292,0.0,4.0,83,0.00,,,0.00,0,Wunderground v.1.15,2013-03-08 11:24:00,
2013-03-08 06:29:00,27.9,23.4,30.15,NNE,14,1.0,4.0,83,0.00,,,0.00,0,Wunderground v.1.15,2013-03-08 11:29:00,
2013-03-08 06:36:00,27.9,23.4,30.15,NNE,30,0.0,6.0,83,0.00,,,0.00,5,Wunderground v.1.15,2013-03-08 11:36:00,
2013-03-08 06:41:00,27.9,23.1,30.15,NNE,14,0.0,6.0,82,0.00,,,0.00,7,Wunderground v.1.15,2013-03-08 11:41:00,
2013-03-08 06:47:00,27.9,23.1,30.16,ESE,108,0.0,6.0,82,0.00,,,0.00,11,Wunderground v.1.15,2013-03-08 11:47:00,
2013-03-08 06:52:00,27.9,23.1,30.16,ESE,108,0.0,6.0,82,0.00,,,0.00,14,Wunderground v.1.15,2013-03-08 11:52:00,
2013-03-08 06:58:00,27.9,23.1,30.16,ESE,108,0.0,6.0,82,0.00,,,0.00,21,Wunderground v.1.15,2013-03-08 11:58:00,
2013-03-08 07:03:00,28.1,23.0,30.16,East,84,0.0,3.0,81,0.00,,,0.00,19,Wunderground v.1.15,2013-03-08 12:03:00,
2013-03-08 07:09:00,28.1,23.0,30.16,East,84,0.0,3.0,81,0.00,,,0.00,21,Wunderground v.1.15,2013-03-08 12:09:00,
2013-03-08 07:15:00,28.1,22.7,30.16,East,83,0.0,3.0,80,0.00,,,0.00,26,Wunderground v.1.15,2013-03-08 12:15:00,
2013-03-08 07:21:00,28.2,22.8,30.16,East,83,0.0,3.0,80,0.00,,,0.00,30,Wunderground v.1.15,2013-03-08 12:21:00,
2013-03-08 07:26:00,28.2,22.5,30.16,East,84,0.0,3.0,79,0.00,,,0.00,28,Wunderground v.1.15,2013-03-08 12:26:00,
2013-03-08 07:32:00,28.4,22.7,30.17,SE,131,1.0,3.0,79,0.00,,,0.00,32,Wunderground v.1.15,2013-03-08 12:32:00,
2013-03-08 07:37:00,28.4,22.4,30.17,NNE,15,0.0,3.0,78,0.00,,,0.00,39,Wunderground v.1.15,2013-03-08 12:37:00,
2013-03-08 07:43:00,28.5,22.5,30.17,NE,41,0.0,3.0,78,0.00,,,0.00,40,Wunderground v.1.15,2013-03-08 12:43:00,
2013-03-08 07:49:00,28.5,22.2,30.17,East,101,0.0,3.0,77,0.00,,,0.00,37,Wunderground v.1.15,2013-03-08 12:49:00,
2013-03-08 07:55:00,28.7,22.4,30.17,East,79,1.0,3.0,77,0.00,,,0.00,42,Wunderground v.1.15,2013-03-08 12:55:00,
2013-03-08 08:01:00,28.8,22.5,30.18,East,79,1.0,1.0,77,0.00,,,0.00,44,Wunderground v.1.15,2013-03-08 13:01:00,
2013-03-08 08:06:00,28.8,22.5,30.18,WSW,248,1.0,4.0,77,0.00,,,0.00,47,Wunderground v.1.15,2013-03-08 13:06:00,
2013-03-08 08:11:00,28.8,22.2,30.18,WNW,286,1.0,4.0,76,0.00,,,0.00,53,Wunderground v.1.15,2013-03-08 13:11:00,
2013-03-08 08:16:00,29.0,22.4,30.19,WNW,292,1.0,4.0,76,0.00,,,0.00,67,Wunderground v.1.15,2013-03-08 13:16:00,
2013-03-08 08:22:00,29.1,22.5,30.19,North,6,1.0,4.0,76,0.00,,,0.00,72,Wunderground v.1.15,2013-03-08 13:22:00,
2013-03-08 08:28:00,29.1,22.5,30.19,North,8,0.0,4.0,76,0.00,,,0.00,69,Wunderground v.1.15,2013-03-08 13:28:00,
2013-03-08 08:34:00,29.3,22.7,30.19,SW,214,1.0,10.0,76,0.00,,,0.00,77,Wunderground v.1.15,2013-03-08 13:34:00,
2013-03-08 08:39:00,29.4,22.8,30.19,South,191,1.0,10.0,76,0.00,,,0.00,81,Wunderground v.1.15,2013-03-08 13:39:00,
2013-03-08 08:46:00,29.4,22.8,30.19,SSW,192,1.0,5.0,76,0.00,,,0.00,95,Wunderground v.1.15,2013-03-08 13:46:00,
2013-03-08 08:51:00,29.5,22.6,30.19,ENE,75,1.0,5.0,75,0.00,,,0.00,105,Wunderground v.1.15,2013-03-08 13:51:00,
2013-03-08 08:57:00,29.7,22.7,30.19,South,181,1.0,5.0,75,0.00,,,0.00,102,Wunderground v.1.15,2013-03-08 13:57:00,
2013-03-08 09:03:00,29.8,22.8,30.19,ESE,123,0.0,10.0,75,0.00,,,0.00,105,Wunderground v.1.15,2013-03-08 14:03:00,
2013-03-08 09:09:00,30.0,22.7,30.19,ESE,116,1.0,10.0,74,0.00,,,0.00,125,Wunderground v.1.15,2013-03-08 14:09:00,
2013-03-08 09:16:00,30.0,22.4,30.20,ENE,73,1.0,10.0,73,0.00,,,0.00,144,Wunderground v.1.15,2013-03-08 14:16:00,
2013-03-08 09:21:00,30.1,22.5,30.20,NE,52,1.0,2.0,73,0.00,,,0.00,141,Wunderground v.1.15,2013-03-08 14:21:00,
2013-03-08 09:27:00,30.1,22.5,30.20,East,96,1.0,10.0,73,0.00,,,0.00,165,Wunderground v.1.15,2013-03-08 14:27:00,
2013-03-08 09:33:00,30.3,22.4,30.20,ENE,68,1.0,7.0,72,0.00,,,0.00,162,Wunderground v.1.15,2013-03-08 14:33:00,
2013-03-08 09:38:00,30.4,22.4,30.20,ENE,59,1.0,7.0,72,0.00,,,0.00,169,Wunderground v.1.15,2013-03-08 14:38:00,
2013-03-08 09:44:00,30.6,22.6,30.21,ENE,72,1.0,7.0,72,0.00,,,0.00,167,Wunderground v.1.15,2013-03-08 14:44:00,
2013-03-08 09:49:00,30.7,22.7,30.21,NNE,21,1.0,7.0,72,0.00,,,0.00,169,Wunderground v.1.15,2013-03-08 14:49:00,
2013-03-08 09:55:00,30.9,22.9,30.21,South,188,1.0,7.0,72,0.00,,,0.00,195,Wunderground v.1.15,2013-03-08 14:55:00,
2013-03-08 10:01:00,31.0,22.7,30.20,North,0,1.0,7.0,71,0.00,,,0.01,183,Wunderground v.1.15,2013-03-08 15:01:00,
2013-03-08 10:06:00,31.2,23.2,30.20,SSE,153,1.0,7.0,72,0.00,,,0.01,178,Wunderground v.1.15,2013-03-08 15:06:00,
2013-03-08 10:11:00,31.3,22.6,30.20,SSE,158,2.0,7.0,70,0.00,,,0.01,193,Wunderground v.1.15,2013-03-08 15:11:00,
2013-03-08 10:17:00,31.3,22.6,30.20,SSE,157,1.0,7.0,70,0.00,,,0.01,218,Wunderground v.1.15,2013-03-08 15:17:00,
2013-03-08 10:22:00,31.3,22.3,30.20,SSE,150,1.0,7.0,69,0.00,,,0.01,236,Wunderground v.1.15,2013-03-08 15:22:00,
2013-03-08 10:28:00,31.6,22.9,30.21,East,101,2.0,7.0,70,0.00,,,0.01,346,Wunderground v.1.15,2013-03-08 15:28:00,
2013-03-08 10:34:00,32.4,23.4,30.21,WSW,250,1.0,9.0,69,0.00,,,0.01,350,Wunderground v.1.15,2013-03-08 15:34:00,
2013-03-08 10:39:00,32.7,23.3,30.21,SSW,209,1.0,9.0,68,0.00,,,0.01,417,Wunderground v.1.15,2013-03-08 15:39:00,
2013-03-08 10:45:00,33.1,23.3,30.20,SW,232,0.0,9.0,67,0.00,,,0.01,329,Wunderground v.1.15,2013-03-08 15:45:00,
2013-03-08 10:51:00,33.4,23.3,30.20,NE,37,1.0,9.0,66,0.00,,,0.01,322,Wunderground v.1.15,2013-03-08 15:51:00,
2013-03-08 10:57:00,33.5,23.4,30.21,SE,129,1.0,9.0,66,0.00,,,0.01,443,Wunderground v.1.15,2013-03-08 15:57:00,
2013-03-08 11:02:00,34.1,23.9,30.21,NE,48,1.0,5.0,66,0.00,,,0.01,450,Wunderground v.1.15,2013-03-08 16:02:00,
2013-03-08 11:07:00,34.4,23.8,30.21,South,189,1.0,5.0,65,0.00,,,0.01,408,Wunderground v.1.15,2013-03-08 16:07:00,
2013-03-08 11:13:00,35.5,24.5,30.20,ESE,105,1.0,5.0,64,0.00,,,0.01,503,Wunderground v.1.15,2013-03-08 16:13:00,
2013-03-08 11:18:00,36.0,24.2,30.20,East,82,0.0,5.0,62,0.00,,,0.01,360,Wunderground v.1.15,2013-03-08 16:18:00,
2013-03-08 11:24:00,35.8,24.0,30.20,NNW,345,1.0,5.0,62,0.00,,,0.01,360,Wunderground v.1.15,2013-03-08 16:24:00,
2013-03-08 11:30:00,36.5,25.1,30.20,SE,127,1.0,12.0,63,0.00,,,0.01,689,Wunderground v.1.15,2013-03-08 16:30:00,
2013-03-08 11:36:00,36.5,23.9,30.20,South,175,1.0,12.0,60,0.00,,,0.01,573,Wunderground v.1.15,2013-03-08 16:36:00,
2013-03-08 11:41:00,36.8,24.2,30.20,ESE,123,1.0,12.0,60,0.00,,,0.01,573,Wunderground v.1.15,2013-03-08 16:41:00,
2013-03-08 11:46:00,36.9,24.3,30.20,SSE,162,1.0,12.0,60,0.00,,,0.01,573,Wunderground v.1.15,2013-03-08 16:46:00,
2013-03-08 11:51:00,36.9,24.3,30.20,NNE,12,2.0,12.0,60,0.00,,,0.01,559,Wunderground v.1.15,2013-03-08 16:51:00,
2013-03-08 11:56:00,36.3,23.3,30.20,SSW,201,2.0,12.0,59,0.00,,,0.01,524,Wunderground v.1.15,2013-03-08 16:56:00,
2013-03-08 12:02:00,36.0,23.4,30.20,WSW,238,1.0,10.0,60,0.00,,,0.01,580,Wunderground v.1.15,2013-03-08 17:02:00,
2013-03-08 12:07:00,36.5,24.3,30.20,WSW,245,1.0,10.0,61,0.00,,,0.01,635,Wunderground v.1.15,2013-03-08 17:07:00,
2013-03-08 12:13:00,37.0,24.4,30.19,NE,49,1.0,10.0,60,0.00,,,0.01,598,Wunderground v.1.15,2013-03-08 17:13:00,
2013-03-08 12:19:00,37.2,23.8,30.19,ENE,78,2.0,10.0,58,0.00,,,0.01,694,Wunderground v.1.15,2013-03-08 17:19:00,
2013-03-08 12:26:00,37.2,24.2,30.19,NW,325,2.0,10.0,59,0.00,,,0.01,656,Wunderground v.1.15,2013-03-08 17:26:00,
2013-03-08 12:31:00,37.5,24.1,30.19,NNE,30,1.0,10.0,58,0.00,,,0.01,673,Wunderground v.1.15,2013-03-08 17:31:00,
2013-03-08 12:36:00,37.9,24.0,30.19,ENE,59,1.0,10.0,57,0.00,,,0.01,731,Wunderground v.1.15,2013-03-08 17:36:00,
2013-03-08 12:42:00,38.9,24.1,30.19,North,350,1.0,10.0,55,0.00,,,0.01,756,Wunderground v.1.15,2013-03-08 17:42:00,
2013-03-08 12:48:00,39.5,24.2,30.19,SE,142,2.0,10.0,54,0.00,,,0.01,717,Wunderground v.1.15,2013-03-08 17:48:00,
2013-03-08 12:54:00,40.2,24.4,30.19,West,265,1.0,10.0,53,0.00,,,0.01,680,Wunderground v.1.15,2013-03-08 17:54:00,
2013-03-08 12:59:00,39.9,24.1,30.18,NE,43,1.0,10.0,53,0.00,,,0.01,534,Wunderground v.1.15,2013-03-08 17:59:00,
2013-03-08 13:06:00,39.2,23.9,30.18,ENE,77,2.0,7.0,54,0.00,,,0.01,308,Wunderground v.1.15,2013-03-08 18:06:00,
2013-03-08 13:11:00,38.5,24.1,30.18,East,89,1.0,7.0,56,0.00,,,0.01,292,Wunderground v.1.15,2013-03-08 18:11:00,
2013-03-08 13:17:00,38.2,24.3,30.18,WSW,251,1.0,7.0,57,0.00,,,0.01,357,Wunderground v.1.15,2013-03-08 18:17:00,
2013-03-08 13:23:00,37.6,24.1,30.18,East,94,1.0,7.0,58,0.00,,,0.01,290,Wunderground v.1.15,2013-03-08 18:23:00,
2013-03-08 13:28:00,37.6,24.1,30.19,South,169,1.0,7.0,58,0.00,,,0.01,258,Wunderground v.1.15,2013-03-08 18:28:00,
2013-03-08 13:34:00,37.5,24.5,30.19,East,84,1.0,11.0,59,0.00,,,0.01,241,Wunderground v.1.15,2013-03-08 18:34:00,
2013-03-08 13:41:00,36.6,23.6,30.19,North,354,1.0,1.0,59,0.00,,,0.01,221,Wunderground v.1.15,2013-03-08 18:41:00,
2013-03-08 13:46:00,36.5,24.3,30.19,East,85,1.0,11.0,61,0.00,,,0.01,227,Wunderground v.1.15,2013-03-08 18:46:00,
2013-03-08 13:51:00,36.5,23.9,30.19,SE,141,1.0,11.0,60,0.00,,,0.01,237,Wunderground v.1.15,2013-03-08 18:51:00,
2013-03-08 13:56:00,36.2,24.0,30.19,ESE,114,1.0,11.0,61,0.00,,,0.01,239,Wunderground v.1.15,2013-03-08 18:56:00,
2013-03-08 14:02:00,36.3,24.1,30.19,NNE,33,1.0,10.0,61,0.00,,,0.01,434,Wunderground v.1.15,2013-03-08 19:02:00,
2013-03-08 14:07:00,36.8,24.6,30.19,WNW,289,1.0,10.0,61,0.00,,,0.01,603,Wunderground v.1.15,2013-03-08 19:07:00,
2013-03-08 14:13:00,38.2,25.9,30.19,NW,306,1.0,10.0,61,0.00,,,0.01,780,Wunderground v.1.15,2013-03-08 19:13:00,
2013-03-08 14:18:00,38.8,24.9,30.19,North,357,1.0,10.0,57,0.00,,,0.01,754,Wunderground v.1.15,2013-03-08 19:18:00,
2013-03-08 14:24:00,39.2,25.2,30.19,ENE,71,1.0,10.0,57,0.00,,,0.01,383,Wunderground v.1.15,2013-03-08 19:24:00,
2013-03-08 14:31:00,38.3,24.0,30.20,WSW,239,1.0,1.0,56,0.00,,,0.01,230,Wunderground v.1.15,2013-03-08 19:31:00,
2013-03-08 14:36:00,37.8,23.9,30.20,NW,308,1.0,7.0,57,0.00,,,0.01,190,Wunderground v.1.15,2013-03-08 19:36:00,
2013-03-08 14:41:00,37.3,24.3,30.20,NNW,340,1.0,7.0,59,0.00,,,0.01,181,Wunderground v.1.15,2013-03-08 19:41:00,
2013-03-08 14:47:00,37.0,24.0,30.20,North,354,1.0,7.0,59,0.00,,,0.01,367,Wunderground v.1.15,2013-03-08 19:47:00,
2013-03-08 14:53:00,37.5,24.9,30.20,NE,56,1.0,7.0,60,0.00,,,0.01,545,Wunderground v.1.15,2013-03-08 19:53:00,
2013-03-08 14:58:00,38.0,24.5,30.20,North,5,1.0,7.0,58,0.00,,,0.01,517,Wunderground v.1.15,2013-03-08 19:58:00,
2013-03-08 15:04:00,38.8,24.9,30.20,South,170,1.0,8.0,57,0.00,,,0.01,482,Wunderground v.1.15,2013-03-08 20:04:00,
2013-03-08 15:10:00,39.5,25.1,30.20,NW,317,1.0,8.0,56,0.00,,,0.01,422,Wunderground v.1.15,2013-03-08 20:10:00,
2013-03-08 15:15:00,39.5,24.7,30.20,NNW,344,1.0,8.0,55,0.00,,,0.01,306,Wunderground v.1.15,2013-03-08 20:15:00,
2013-03-08 15:21:00,39.3,24.5,30.20,ENE,76,1.0,8.0,55,0.00,,,0.01,234,Wunderground v.1.15,2013-03-08 20:21:00,
2013-03-08 15:26:00,39.1,24.3,30.20,South,190,1.0,8.0,55,0.00,,,0.01,216,Wunderground v.1.15,2013-03-08 20:26:00,
2013-03-08 15:32:00,39.1,24.7,30.20,West,259,1.0,11.0,56,0.00,,,0.01,271,Wunderground v.1.15,2013-03-08 20:32:00,
2013-03-08 15:37:00,38.8,24.0,30.20,WNW,289,2.0,11.0,55,0.00,,,0.01,250,Wunderground v.1.15,2013-03-08 20:37:00,
2013-03-08 15:43:00,38.8,24.4,30.20,South,174,2.0,11.0,56,0.00,,,0.01,172,Wunderground v.1.15,2013-03-08 20:43:00,
2013-03-08 15:48:00,38.8,24.9,30.20,South,170,1.0,11.0,57,0.00,,,0.01,172,Wunderground v.1.15,2013-03-08 20:48:00,
2013-03-08 15:54:00,38.5,24.6,30.20,SE,136,1.0,11.0,57,0.00,,,0.01,156,Wunderground v.1.15,2013-03-08 20:54:00,
2013-03-08 16:01:00,38.2,24.3,30.20,NW,313,1.0,7.0,57,0.00,,,0.01,137,Wunderground v.1.15,2013-03-08 21:01:00,
2013-03-08 16:06:00,37.9,24.4,30.20,South,171,1.0,7.0,58,0.00,,,0.01,127,Wunderground v.1.15,2013-03-08 21:06:00,
2013-03-08 16:11:00,37.9,24.4,30.20,South,171,1.0,7.0,58,0.00,,,0.01,121,Wunderground v.1.15,2013-03-08 21:11:00,
2013-03-08 16:17:00,37.6,24.1,30.22,SSE,160,1.0,7.0,58,0.00,,,0.01,116,Wunderground v.1.15,2013-03-08 21:17:00,
2013-03-08 16:23:00,37.2,24.2,30.22,ENE,65,1.0,7.0,59,0.00,,,0.01,105,Wunderground v.1.15,2013-03-08 21:23:00,
2013-03-08 16:28:00,37.0,24.4,30.22,ENE,60,0.0,7.0,60,0.00,,,0.01,97,Wunderground v.1.15,2013-03-08 21:28:00,
2013-03-08 16:34:00,36.8,24.2,30.22,ENE,63,0.0,9.0,60,0.00,,,0.01,88,Wunderground v.1.15,2013-03-08 21:34:00,
2013-03-08 16:41:00,36.5,23.9,30.22,South,175,1.0,1.0,60,0.00,,,0.01,79,Wunderground v.1.15,2013-03-08 21:41:00,
2013-03-08 16:46:00,36.3,24.1,30.24,SE,144,1.0,9.0,61,0.00,,,0.01,72,Wunderground v.1.15,2013-03-08 21:46:00,
2013-03-08 16:52:00,35.9,24.1,30.24,WSW,254,1.0,9.0,62,0.00,,,0.01,63,Wunderground v.1.15,2013-03-08 21:52:00,
2013-03-08 16:58:00,35.5,24.1,30.24,SE,127,1.0,9.0,63,0.00,,,0.01,62,Wunderground v.1.15,2013-03-08 21:58:00,
2013-03-08 17:03:00,35.2,23.9,30.24,WNW,295,1.0,10.0,63,0.00,,,0.01,60,Wunderground v.1.15,2013-03-08 22:03:00,
2013-03-08 17:09:00,34.9,23.9,30.24,SSW,197,1.0,10.0,64,0.00,,,0.01,44,Wunderground v.1.15,2013-03-08 22:09:00,
2013-03-08 17:15:00,34.7,23.8,30.25,SSE,150,1.0,10.0,64,0.00,,,0.01,35,Wunderground v.1.15,2013-03-08 22:15:00,
2013-03-08 17:21:00,34.4,23.8,30.25,WNW,288,0.0,10.0,65,0.00,,,0.01,28,Wunderground v.1.15,2013-03-08 22:21:00,
2013-03-08 17:26:00,34.3,23.7,30.25,SSW,193,0.0,10.0,65,0.00,,,0.01,25,Wunderground v.1.15,2013-03-08 22:26:00,
2013-03-08 17:32:00,34.0,23.8,30.25,SSW,203,1.0,10.0,66,0.00,,,0.01,19,Wunderground v.1.15,2013-03-08 22:32:00,
2013-03-08 17:38:00,33.7,23.5,30.25,NW,316,1.0,10.0,66,0.00,,,0.01,12,Wunderground v.1.15,2013-03-08 22:38:00,
2013-03-08 17:43:00,33.5,23.7,30.25,NNE,25,1.0,6.0,67,0.00,,,0.01,9,Wunderground v.1.15,2013-03-08 22:43:00,
2013-03-08 17:49:00,33.4,23.6,30.25,ENE,60,0.0,6.0,67,0.00,,,0.01,5,Wunderground v.1.15,2013-03-08 22:49:00,
2013-03-08 17:56:00,33.2,23.4,30.25,ENE,57,0.0,6.0,67,0.00,,,0.01,5,Wunderground v.1.15,2013-03-08 22:56:00,
2013-03-08 18:01:00,33.1,23.3,30.26,ESE,122,0.0,11.0,67,0.00,,,0.01,0,Wunderground v.1.15,2013-03-08 23:01:00,
2013-03-08 18:07:00,32.9,23.5,30.26,ESE,122,0.0,11.0,68,0.00,,,0.01,0,Wunderground v.1.15,2013-03-08 23:07:00,
2013-03-08 18:13:00,32.8,23.4,30.27,SW,217,0.0,11.0,68,0.00,,,0.01,0,Wunderground v.1.15,2013-03-08 23:13:00,
2013-03-08 18:18:00,32.8,23.4,30.27,SW,217,0.0,11.0,68,0.00,,,0.01,0,Wunderground v.1.15,2013-03-08 23:18:00,
2013-03-08 18:24:00,32.7,23.6,30.27,SSW,207,1.0,11.0,69,0.00,,,0.01,0,Wunderground v.1.15,2013-03-08 23:24:00,
2013-03-08 18:31:00,32.5,23.5,30.27,SSW,207,1.0,1.0,69,0.00,,,0.01,0,Wunderground v.1.15,2013-03-08 23:31:00,
2013-03-08 18:36:00,32.5,23.5,30.27,SSW,207,0.0,4.0,69,0.00,,,0.01,0,Wunderground v.1.15,2013-03-08 23:36:00,
2013-03-08 18:42:00,32.4,23.4,30.28,SSW,207,0.0,4.0,69,0.00,,,0.01,0,Wunderground v.1.15,2013-03-08 23:42:00,
2013-03-08 18:48:00,32.4,23.7,30.28,SE,134,1.0,4.0,70,0.00,,,0.01,0,Wunderground v.1.15,2013-03-08 23:48:00,
2013-03-08 18:54:00,32.4,23.7,30.28,SE,131,1.0,4.0,70,0.00,,,0.01,0,Wunderground v.1.15,2013-03-08 23:54:00,
2013-03-08 18:59:00,32.4,23.7,30.28,SE,131,0.0,4.0,70,0.00,,,0.01,0,Wunderground v.1.15,2013-03-08 23:59:00,
2013-03-08 19:06:00,32.2,23.5,30.28,SE,131,0.0,7.0,70,0.00,,,0.01,0,Wunderground v.1.15,2013-03-09 00:06:00,
2013-03-08 19:11:00,32.1,23.4,30.28,SE,131,0.0,7.0,70,0.00,,,0.01,0,Wunderground v.1.15,2013-03-09 00:11:00,
2013-03-08 19:17:00,31.9,23.2,30.28,SE,133,0.0,7.0,70,0.00,,,0.01,0,Wunderground v.1.15,2013-03-09 00:17:00,
2013-03-08 19:23:00,31.9,23.6,30.28,SE,133,0.0,7.0,71,0.00,,,0.01,0,Wunderground v.1.15,2013-03-09 00:23:00,
2013-03-08 19:29:00,31.8,23.8,30.29,SE,133,0.0,7.0,72,0.00,,,0.01,0,Wunderground v.1.15,2013-03-09 00:29:00,
2013-03-08 19:34:00,31.6,23.6,30.29,SE,133,0.0,4.0,72,0.00,,,0.01,0,Wunderground v.1.15,2013-03-09 00:34:00,
2013-03-08 19:41:00,31.5,23.5,30.29,SE,133,0.0,4.0,72,0.00,,,0.01,0,Wunderground v.1.15,2013-03-09 00:41:00,
2013-03-08 19:46:00,31.5,23.5,30.29,SE,138,0.0,4.0,72,0.00,,,0.01,0,Wunderground v.1.15,2013-03-09 00:46:00,
2013-03-08 19:52:00,31.3,23.3,30.29,SE,138,0.0,4.0,72,0.00,,,0.01,0,Wunderground v.1.15,2013-03-09 00:52:00,
2013-03-08 19:57:00,31.2,23.5,30.29,SE,138,0.0,4.0,73,0.00,,,0.01,0,Wunderground v.1.15,2013-03-09 00:57:00,
2013-03-08 20:03:00,30.9,23.3,30.29,SE,138,0.0,3.0,73,0.00,,,0.01,0,Wunderground v.1.15,2013-03-09 01:03:00,
2013-03-08 20:09:00,30.9,23.3,30.29,SE,138,0.0,3.0,73,0.00,,,0.01,0,Wunderground v.1.15,2013-03-09 01:09:00,
2013-03-08 20:15:00,30.7,23.1,30.29,SE,138,0.0,3.0,73,0.00,,,0.01,0,Wunderground v.1.15,2013-03-09 01:15:00,
2013-03-08 20:21:00,30.6,23.0,30.29,SE,138,0.0,3.0,73,0.00,,,0.01,0,Wunderground v.1.15,2013-03-09 01:21:00,
2013-03-08 20:26:00,30.6,23.0,30.29,SE,138,0.0,3.0,73,0.00,,,0.01,0,Wunderground v.1.15,2013-03-09 01:26:00,
2013-03-08 20:32:00,30.3,23.0,30.30,SE,138,0.0,2.0,74,0.00,,,0.01,0,Wunderground v.1.15,2013-03-09 01:32:00,
2013-03-08 20:38:00,30.3,23.0,30.30,SE,138,0.0,2.0,74,0.00,,,0.01,0,Wunderground v.1.15,2013-03-09 01:38:00,
2013-03-08 20:43:00,30.1,22.8,30.29,SE,138,0.0,2.0,74,0.00,,,0.01,0,Wunderground v.1.15,2013-03-09 01:43:00,
2013-03-08 20:48:00,30.0,23.0,30.29,SSW,203,0.0,2.0,75,0.00,,,0.01,0,Wunderground v.1.15,2013-03-09 01:48:00,
2013-03-08 20:54:00,29.8,22.8,30.29,SSW,203,0.0,2.0,75,0.00,,,0.01,0,Wunderground v.1.15,2013-03-09 01:54:00,
2013-03-08 21:00:00,29.5,22.6,30.30,SSW,203,0.0,3.0,75,0.00,,,0.01,0,Wunderground v.1.15,2013-03-09 02:00:00,
2013-03-08 21:06:00,29.4,22.8,30.30,SSW,203,0.0,3.0,76,0.00,,,0.01,0,Wunderground v.1.15,2013-03-09 02:06:00,
2013-03-08 21:11:00,29.3,22.7,30.30,SSW,203,0.0,3.0,76,0.00,,,0.01,0,Wunderground v.1.15,2013-03-09 02:11:00,
2013-03-08 21:17:00,29.1,22.5,30.30,SSW,203,0.0,3.0,76,0.00,,,0.01,0,Wunderground v.1.15,2013-03-09 02:17:00,
2013-03-08 21:23:00,29.0,22.7,30.30,SSW,203,0.0,3.0,77,0.00,,,0.01,0,Wunderground v.1.15,2013-03-09 02:23:00,
2013-03-08 21:29:00,29.0,22.7,30.29,SSW,203,0.0,3.0,77,0.00,,,0.01,0,Wunderground v.1.15,2013-03-09 02:29:00,
2013-03-08 21:34:00,29.0,22.7,30.29,SSW,203,0.0,2.0,77,0.00,,,0.01,0,Wunderground v.1.15,2013-03-09 02:34:00,
2013-03-08 21:41:00,28.8,22.8,30.29,SSW,203,0.0,2.0,78,0.00,,,0.01,0,Wunderground v.1.15,2013-03-09 02:41:00,
2013-03-08 21:46:00,28.7,22.7,30.29,SSW,203,0.0,2.0,78,0.00,,,0.01,0,Wunderground v.1.15,2013-03-09 02:46:00,
2013-03-08 21:51:00,28.7,22.7,30.29,SSW,203,0.0,2.0,78,0.00,,,0.01,0,Wunderground v.1.15,2013-03-09 02:51:00,
2013-03-08 21:56:00,28.5,22.5,30.29,SSW,203,0.0,2.0,78,0.00,,,0.01,0,Wunderground v.1.15,2013-03-09 02:56:00,
2013-03-08 22:01:00,28.4,22.4,30.28,SSW,203,0.0,2.0,78,0.00,,,0.01,0,Wunderground v.1.15,2013-03-09 03:01:00,
2013-03-08 22:07:00,28.2,22.2,30.28,SSW,203,0.0,2.0,78,0.00,,,0.01,0,Wunderground v.1.15,2013-03-09 03:07:00,
2013-03-08 22:12:00,28.1,22.1,30.29,SSW,203,0.0,2.0,78,0.00,,,0.01,0,Wunderground v.1.15,2013-03-09 03:12:00,
2013-03-08 22:17:00,27.9,21.9,30.29,SSW,203,0.0,2.0,78,0.00,,,0.01,0,Wunderground v.1.15,2013-03-09 03:17:00,
2013-03-08 22:23:00,27.8,21.8,30.29,SSW,203,0.0,2.0,78,0.00,,,0.01,0,Wunderground v.1.15,2013-03-09 03:23:00,
2013-03-08 22:29:00,27.6,21.9,30.28,SSW,203,0.0,2.0,79,0.00,,,0.01,0,Wunderground v.1.15,2013-03-09 03:29:00,
2013-03-08 22:34:00,27.5,21.8,30.28,SSW,203,0.0,1.0,79,0.00,,,0.01,0,Wunderground v.1.15,2013-03-09 03:34:00,
2013-03-08 22:41:00,27.5,21.8,30.28,SSW,203,0.0,0.0,79,0.00,,,0.01,0,Wunderground v.1.15,2013-03-09 03:41:00,
2013-03-08 22:46:00,27.3,21.6,30.29,SSW,203,0.0,0.0,79,0.00,,,0.01,0,Wunderground v.1.15,2013-03-09 03:46:00,
2013-03-08 22:51:00,27.2,21.5,30.29,SSW,203,0.0,0.0,79,0.00,,,0.01,0,Wunderground v.1.15,2013-03-09 03:51:00,
2013-03-08 22:57:00,27.0,21.4,30.29,SSW,203,0.0,0.0,79,0.00,,,0.01,0,Wunderground v.1.15,2013-03-09 03:57:00,
2013-03-08 23:02:00,27.0,21.7,30.29,SSW,203,0.0,1.0,80,0.00,,,0.01,0,Wunderground v.1.15,2013-03-09 04:02:00,
2013-03-08 23:08:00,27.2,21.8,30.29,SSW,203,0.0,1.0,80,0.00,,,0.01,0,Wunderground v.1.15,2013-03-09 04:08:00,
2013-03-08 23:13:00,27.2,21.8,30.29,SSW,203,0.0,1.0,80,0.00,,,0.01,0,Wunderground v.1.15,2013-03-09 04:13:00,
2013-03-08 23:18:00,27.5,22.4,30.29,SSW,203,0.0,1.0,81,0.00,,,0.01,0,Wunderground v.1.15,2013-03-09 04:18:00,
2013-03-08 23:24:00,27.3,21.9,30.29,SSW,203,0.0,1.0,80,0.00,,,0.01,0,Wunderground v.1.15,2013-03-09 04:24:00,
2013-03-08 23:29:00,27.2,21.8,30.29,SSW,203,0.0,1.0,80,0.00,,,0.01,0,Wunderground v.1.15,2013-03-09 04:29:00,
2013-03-08 23:36:00,27.2,22.1,30.29,SSW,203,0.0,2.0,81,0.00,,,0.01,0,Wunderground v.1.15,2013-03-09 04:36:00,
2013-03-08 23:41:00,27.2,22.1,30.29,SSW,203,0.0,2.0,81,0.00,,,0.01,0,Wunderground v.1.15,2013-03-09 04:41:00,
2013-03-08 23:46:00,27.0,21.9,30.29,SSW,203,0.0,2.0,81,0.00,,,0.01,0,Wunderground v.1.15,2013-03-09 04:46:00,
2013-03-08 23:52:00,26.9,21.6,30.29,SSW,203,0.0,2.0,80,0.00,,,0.01,0,Wunderground v.1.15,2013-03-09 04:52:00,
2013-03-08 23:58:00,26.9,21.8,30.28,SSW,203,0.0,2.0,81,0.00,,,0.01,0,Wunderground v.1.15,2013-03-09 04:58:00,